Showing default

OPS 9324 (IDSCS 11), 2651

Orbit data source: Space-Track

OPS 9324 (IDSCS 11), 2651 is a payload satellite owned by USAF SSD (US) in GEO that was launched on Wed, 18 Jan 1967 UTC via a TITAN IIIC launch vehicle from the Air Force Eastern Test Range (AFETR). Payload-class satellites include a variety of spacecraft equipped with specific instruments for various scientific and technological missions. These include communications satellites like Starlink; space stations such as the ISS; scientific satellites like the Hubble; Earth observation satellites from companies like Planet Labs, Umbra, and HawkEye 360; GPS; miniature CubeSats for education and research; and military/defense satellites.

Loading next visibility...
Identifier
2651, 1967-003D
Orbit
GEO
Country
Flag of USUS
Related business
Manufacturer
Philco-Ford WDL
Mission
Non-operational spacecraft
Bus & Motor
IDCSP, Unknown motor
Mass
45 kg wet, 45 kg dry
Launch date (UTC)
1967-01-18 (59 years ago)
Launch vehicle
TITAN IIIC
Launch site
Air Force Eastern Test Range (AFETR)
Object type
Payload
Rocket body
Debris
Shape & HBR
Unknown
Radar Cross Section
Medium (>0.1 m² and <1 m²)

Expand to show TLE details & history
Last TLE update: 2 days ago

TLE from 2 days ago
0 OPS 9324 (IDSCS 11)
1 02651U 67003D   26139.61456528 -.00000080  00000-0  00000-0 0  9997
2 02651   8.2133  45.3881 0033724  95.9375  91.0269  1.08104949140434
Epoch: 2026-05-19T14:44Z
TLE epoch observation values (Epoch: 2026-05-19T14:44:58.440Z)
Latitude
-1.06786°
Longitude
134.14276°
Altitude
33,727.128 km
Speed
3.153 km/s
True Right ascension
15h 30m 41s
True Declination
-1° 04' 00"
Sunlit
Object was in daylight at epoch
Visualization orbit readout
Latitude
Unknown
Longitude
Unknown
Altitude
Unknown
Speed
Unknown
Apparent Right ascension
Unknown
Apparent Declination
Unknown
Sunlit
N/A
Visualization observer readout
Local Sidereal Time
19:24:09
Azimuth
Unknown
Elevation
Unknown
Doppler factor
Unknown
Orbital elements
Apogee altitude
33,860.698 km
Perigee altitude
33,590.208 km
Semi-major axis
40,103.59 km
Eccentricity
0.00337
Inclination
8.2133°
RAAN
45.3881°
Arg. of periapsis
95.9375°
True anomaly
91.41325°
Mean anomaly
91.0269°
Eccentric anomaly
91.22008°
Mean motion
0.27025 °/min
Orbital period
1,332.09 mins
BSTAR
0
Loading maneuver chart data...
Computing Atmospheric mass density...
Loading historical data...
Loading historical data...
Loading historical data...
Loading historical data...
Loading historical data...
Loading historical data...
Loading historical data...

Documentation

Showing up to 5 results
|